{"data":{"norad_id":53929,"intl_designator":"2022-119AV","name":"STARLINK-5018","alt_names":[],"object_type":"PAYLOAD","status":"ACTIVE","operator":null,"country":"US","launch_date":"2022-09-24","launch_site_code":"AFETR","launch_vehicle":null,"mission":null,"orbit_class":"UNKNOWN","rcs_meters":null,"size_class":null,"mass_kg":null,"dimensions":null,"purposes":["comms"],"wikipedia_slug":null,"has_3d_model":false,"image_url":null,"decayed_at":null,"tle_current":{"epoch":"2026-09-20T23:00:32.410080Z","epoch_age_seconds":47066,"freshness":"FRESH","line1":"1 53929U 22119AV  26263.95870845  .00001177  00000+0  49680-4 0  9994","line2":"2 53929  53.1596 145.6525 0001367  87.0096 273.1062 15.31705719221469","mean_motion":15.31705719,"eccentricity":0.0001367,"inclination_deg":53.1596,"raan_deg":145.6525,"arg_perigee_deg":87.0096,"mean_anomaly_deg":273.1062,"bstar":4.968e-5,"rev_number":22146,"period_min":94.012836939731,"perigee_km":469.7867080825,"apogee_km":471.65918639207,"semimajor_km":6848.8599472373,"source":"CELESTRAK","updated_at":"2026-09-21T09:00:33.037080Z"}}}